Location: Amherst
(42.5000°N, 72.5000°W)
Time: 15:27:38
(UTC-04:00)

ISS - Visible Passes

Search period start: 21 August 2018 00:00
Search period end: 31 August 2018 00:00
Orbit: 401 x 409 km, 51.6° (Epoch: 22 August)

Date Brightness Start Highest point End Pass type
(mag) Time Alt. Az. Time Alt. Az. Time Alt. Az.
27 Aug -1.0 05:33:57 10° SSE 05:35:22 12° SE 05:36:47 10° ESE visible
29 Aug -2.1 05:24:37 10° SSW 05:27:29 28° SE 05:30:21 10° ENE visible
30 Aug -1.4 04:34:10 12° SSE 04:35:36 16° SE 04:37:38 10° E visible
